Regional Weather Roundup
Issued by NWS Northern Indiana

Home | Current Version | Previous Version | Text Only | Print | Product List | Glossary Off
Versions: 1 2 3 4 5 6 7 8 9 10 11 12 13 14 15 16 17 18 19 20 21 22 23 24 25 26 27 28 29 30 31 32 33 34 35 36 37 38 39 40 41 42 43 44 45 46 47 48 49 50

821
ASUS43 KIWX 300200
RWRIWX

KIWX WEATHER ROUNDUP
NATIONAL WEATHER SERVICE NORTHERN INDIANA
1000 PM EDT FRI JUL 29 2016

NOTE: "FAIR" INDICATES FEW OR NO CLOUDS BELOW 12,000 FEET WITH NO
SIGNIFICANT WEATHER AND/OR OBSTRUCTIONS TO VISIBILITY.

* THESE STATIONS ARE NOT UNDER NWS QUALITY CONTROL. THEY ALSO MAY NOT
  REPORT WEATHER SUCH AS PRECIPITATION OR FOG.

INZ001>027-300300-
NORTHERN INDIANA

CITY           SKY/WX    TMP DP  RH WIND       PRES   REMARKS
GARY*          MOCLDY    73  72  94 NE6       29.94S
KNOX*          CLEAR     68  64  88 CALM      29.93S
SOUTH BEND     CLOUDY    71  69  93 NE9       29.94F
GOSHEN         CLOUDY    74  68  81 N5        29.94R
MONTICELLO*    PTCLDY    73  66  80 NE5       29.92S
WARSAW*        CLOUDY    70  68  94 CALM      29.94S
ANGOLA*          N/A     73  66  78 S12       29.97R
FORT WAYNE     MOCLDY    70  67  90 NE9       29.95R
PERU/GRISSOM   CLOUDY    71  68  91 E2        29.92R

$$
INZ028>050-300300-
CENTRAL INDIANA

CITY           SKY/WX    TMP DP  RH WIND       PRES   REMARKS
LAFAYETTE      CLOUDY    73  68  84 E8        29.91S
KOKOMO*        CLOUDY    70  64  83 CALM      29.93S
MUNCIE*        CLOUDY    71  68  90 E5        29.93F
INDIANAPOLIS   PTCLDY    74  70  87 NE7       29.93R

$$
MIZ043>046-050>051-056>058-064>065-071>073-077>080-300300-
SOUTHWEST LOWER MICHIGAN

CITY           SKY/WX    TMP DP  RH WIND       PRES   REMARKS
BATTLE CREEK   MOCLDY    69  61  75 NE10      29.98R
BENTON HARBOR  LGT RAIN  70  67  90 NE5       29.95S
COLDWATER*     CLOUDY    72  68  87 SE5       29.98R
HILLSDALE*     RAIN      71  66  84 E5        29.98S
HOLLAND        CLOUDY    73  63  70 NE8       29.99R
GRAND RAPIDS   MOCLDY    69  57  65 NE12      30.00R
KALAMAZOO      MOCLDY    73  59  61 NE5       29.97R
STURGIS*       CLOUDY    73  67  81 E12G20    29.96R
THREE RIVERS*  LGT RAIN  72  65  79 E3        29.96R

$$
OHZ001>008-015>018-024>025-300300-
NORTHWEST OHIO

CITY           SKY/WX    TMP DP  RH WIND       PRES   REMARKS
DEFIANCE       RAIN      73  69  87 E3        29.96S FOG
FINDLAY        LGT RAIN  74  69  85 E6        29.94S
TOLEDO EXPRESS LGT RAIN  72  67  84 SE3       29.96R
TOLEDO METCALF CLOUDY    75  70  84 NE3       29.96S
LIMA           CLOUDY    71  70  96 NW5       29.96R

$$
AND FOR LAKE MICHIGAN COASTAL AND OPEN LAKE BUOY OBSERVATIONS

STATION/POSITION TEMP    WIND        PRES    VSBY  WAVE
                 AIR SEA DIR/SP/G                  HT/PER
                 (F)     (DEG/KT/KT) (MB)    (MI)  (FT/S)
CALUMET HARBOR                       1013.4
MICHIGAN CITY     71      50/  7/  9   N/A
BURNS HARBOR      71      70/  5/ 14 1014.2R
SAINT JOSEPH      71      40/  2/  4 1014.6F
SOUTH LAKE BUOY   71 74  170/  2/  4 1014.3          2/ 6
4 MI NW BRIDGMAN  73 76   50/ 12/ 14 1013.6F         2
MICHIGAN CITY     74 76   50/ 14/ 17   N/A           2/ 5

$$
&&




USA.gov is the U.S. government's official web portal to all federal, state and local government web resources and services.